View from above orbital plane
|
View from above satellite
|
Ground track
|
The orbit data is extracted from the following two-line orbital elements,
1 00670U 63038B 21015.56819238 .00000034 00000-0 43096-4 0 9997
2 00670 90.0399 332.7266 0039686 299.0696 60.6480 13.44341349808463
Epoch (UTC): | 15 January 2021 13:38:11 |
Eccentricity: | 0.0039686 |
inclination: | 90.0399° |
perigee height: | 1063 km |
apogee height: | 1123 km |
right ascension of ascending node: | 332.7266° |
argument of perigee: | 299.0696° |
revolutions per day: | 13.44341349 |
mean anomaly at epoch: | 60.6480° |
orbit number at epoch: | 80846 |
The dashed part of the orbit path shows where the satellite is in the earth's shadow,
|
|